Content
SEND FEEDBACK

Daily
Averages
Monthly
Summary
United States of America

FREDERICKSBURG, TEXAS


Home > North America > United States > Texas
Elevation: 1694 feet     Latitude: 30 15N     Longitude: 098 55W

WEATHER
 
SELECT A DAY
Number of Records: 302,501;   Date Range: 6/6/02 - 9/30/14
 
SHARE

PRINT THIS DATA

[ ← Previous Day ]
WEATHER ALMANAC - JANUARY 31, 2013
[ Next Day → ]
[ °C ]   °F
Weather ElementAverageHighLow
Temperature43.3 °F62.8 °F (2:55 pm)25.3 °F (4:15 am)
Dewpoint23.3 °F28 °F (10:55 pm)19.9 °F (6:55 am)
Humidity52 %84 % (4:15 am)22 % (2:35 pm)
Barometer30.22 in30.28 in (10:35 am)30.17 in (4:55 pm)
Wind Speed5.8 mph17.3 mph (10:35 am)
Wind Gust26.5 mph (2:15 pm)
Weather ElementAverage
Visibility10 mi
Wind DirectionSSE (172 °)

Weather ElementTotal
Precipitation---
Heating Degree Days21 (Base 65)
Averaged from 71 records on January 31, 2013
WEATHER CONDITIONS BREAKOUT
WIND DIRECTION BREAKOUT
WEATHER BY HOUR - JANUARY 31, 2013
[ °C ]   °F
Local TimeTemperatureDewpointHumidityBarometerVisibilityWind DirectionWind SpeedGust SpeedPrecipitationEventsConditions
12:35 AM30.9 °F21.2 °F67 %30.21 in10.0 miCalmClear
12:55 AM28.9 °F22.1 °F76 %30.21 in10.0 miCalmClear
1:15 AM28.2 °F22.1 °F78 %30.21 in10.0 miCalmClear
1:35 AM29.5 °F22.1 °F74 %30.20 in10.0 miWNW (290°)3.5 mphClear
1:55 AM28.6 °F22.1 °F77 %30.20 in10.0 miNW (310°)3.5 mphClear
2:15 AM26.4 °F21.4 °F81 %30.19 in10.0 miCalmClear
2:35 AM28.2 °F21.4 °F76 %30.19 in10.0 miWest (270°)3.5 mphClear
2:55 AM27.5 °F21.2 °F77 %30.19 in10.0 miCalmClear
3:15 AM27.1 °F21.2 °F78 %30.19 in10.0 miWest (270°)4.6 mphClear
3:35 AM27.1 °F21.7 °F80 %30.20 in10.0 miWest (270°)3.5 mphClear
3:55 AM25.9 °F20.8 °F81 %30.19 in10.0 miCalmClear
4:15 AM25.3 °F21.2 °F84 %30.19 in10.0 miWest (280°)3.5 mphClear
4:35 AM26.6 °F21.7 °F82 %30.19 in10.0 miCalmClear
4:55 AM26.4 °F21.6 °F82 %30.20 in10.0 miWest (270°)4.6 mphClear
5:15 AM27.3 °F21.4 °F78 %30.20 in10.0 miWNW (300°)3.5 mphClear
5:35 AM27.0 °F20.7 °F77 %30.19 in10.0 miCalmClear
5:55 AM26.4 °F20.8 °F79 %30.20 in10.0 miCalmClear
6:15 AM27.5 °F20.5 °F75 %30.21 in10.0 miCalmClear
6:35 AM29.7 °F20.3 °F68 %30.22 in10.0 miCalmClear
6:55 AM29.7 °F19.9 °F67 %30.22 in10.0 miNW (320°)3.5 mphClear
7:15 AM27.7 °F20.8 °F75 %30.22 in10.0 miCalmClear
7:35 AM27.1 °F21.2 °F78 %30.22 in10.0 miNNW (330°)4.6 mphClear
7:55 AM27.7 °F21.6 °F78 %30.24 in10.0 miCalmClear
8:15 AM30.0 °F24.4 °F80 %30.24 in10.0 miCalmClear
8:35 AM32.5 °F25.7 °F76 %30.25 in10.0 miCalmClear
8:55 AM37.2 °F26.6 °F65 %30.25 in10.0 miCalmClear
9:15 AM41.7 °F23.4 °F48 %30.26 in10.0 miWSW (250°)4.6 mphClear
9:35 AM45.9 °F24.1 °F42 %30.26 in10.0 miSW (230°)6.9 mphClear
9:55 AM49.8 °F21.0 °F32 %30.27 in10.0 miSW (230°)13.8 mphClear
10:15 AM52.2 °F20.3 °F29 %30.27 in10.0 miSW (220°)16.1 mphClear
10:35 AM53.6 °F20.3 °F27 %30.28 in10.0 miSW (220°)17.3 mphClear
10:55 AM54.9 °F20.8 °F27 %30.28 in10.0 miWSW (240°)13.8 mphClear
11:15 AM56.5 °F21.6 °F26 %30.27 in10.0 miSW (220°)17.3 mph21.9 mphClear
11:35 AM57.6 °F22.3 °F26 %30.27 in10.0 miSW (220°)13.8 mphClear
11:55 AM57.7 °F21.4 °F24 %30.27 in10.0 miWSW (240°)15.0 mph19.6 mphClear
12:15 PM59.9 °F23.0 °F24 %30.26 in10.0 miWSW (250°)11.5 mph19.6 mphClear
12:35 PM60.3 °F22.3 °F23 %30.24 in10.0 miSW (220°)13.8 mph18.4 mphClear
12:55 PM61.0 °F22.8 °F23 %30.23 in10.0 miSSW (210°)17.3 mph20.7 mphClear
1:15 PM61.3 °F22.6 °F23 %30.22 in10.0 miSSW (210°)12.7 mph24.2 mphClear
1:35 PM61.0 °F22.3 °F23 %30.20 in10.0 miSSW (210°)12.7 mph24.2 mphClear
1:55 PM61.0 °F22.5 °F23 %30.20 in10.0 miSW (220°)9.2 mph18.4 mphClear
2:15 PM61.5 °F22.6 °F23 %30.19 in10.0 miWSW (240°)15.0 mph26.5 mphClear
2:35 PM62.2 °F23.2 °F22 %30.19 in10.0 miSW (220°)11.5 mph18.4 mphClear
2:55 PM62.8 °F24.1 °F23 %30.19 in10.0 miWSW (250°)8.1 mph17.3 mphClear
3:15 PM62.8 °F23.5 °F22 %30.19 in10.0 miSW (230°)10.4 mphClear
3:35 PM62.8 °F23.5 °F22 %30.18 in10.0 miSSW (200°)9.2 mph16.1 mphClear
3:55 PM62.4 °F23.2 °F22 %30.18 in10.0 miSW (230°)10.4 mphClear
4:15 PM62.2 °F23.5 °F23 %30.18 in10.0 miSW (220°)9.2 mphClear
4:35 PM61.9 °F23.5 °F23 %30.19 in10.0 miSW (220°)10.4 mphClear
4:55 PM62.1 °F24.3 °F24 %30.17 in10.0 miSW (220°)10.4 mphClear
5:15 PM61.7 °F23.7 °F23 %30.17 in10.0 miWSW (240°)8.1 mphClear
5:35 PM59.9 °F24.4 °F26 %30.18 in10.0 miSSW (210°)10.4 mphClear
5:55 PM58.1 °F24.1 °F27 %30.18 in10.0 miSSW (210°)8.1 mphClear
6:15 PM55.6 °F23.9 °F29 %30.19 in10.0 miSW (220°)5.8 mphClear
6:35 PM53.2 °F23.9 °F32 %30.21 in10.0 miSW (230°)3.5 mphClear
6:55 PM50.4 °F24.3 °F36 %30.22 in10.0 miWSW (250°)3.5 mphClear
7:15 PM48.6 °F24.6 °F39 %30.24 in10.0 miWSW (250°)4.6 mphClear
7:35 PM49.3 °F24.6 °F38 %30.24 in10.0 miWSW (250°)4.6 mphClear
7:55 PM51.3 °F24.4 °F35 %30.25 in10.0 miWSW (240°)6.9 mphClear
8:15 PM42.3 °F25.7 °F52 %30.24 in10.0 miCalmClear
8:35 PM41.9 °F26.4 °F54 %30.25 in10.0 miCalmClear
8:55 PM40.3 °F27.1 °F59 %30.25 in10.0 miWest (260°)3.5 mphClear
9:15 PM40.5 °F27.9 °F61 %30.26 in10.0 miWest (280°)3.5 mphClear
9:35 PM38.7 °F27.7 °F65 %30.26 in10.0 miCalmClear
9:55 PM36.9 °F27.9 °F70 %30.26 in10.0 miCalmClear
10:15 PM37.9 °F27.5 °F66 %30.26 in10.0 miCalmClear
10:35 PM36.5 °F27.5 °F70 %30.26 in10.0 miWest (280°)3.5 mphClear
10:55 PM35.2 °F28.0 °F75 %30.26 in10.0 miNW (320°)3.5 mphClear
11:15 PM36.1 °F27.5 °F71 %30.26 in10.0 miCalmClear
11:35 PM35.1 °F27.5 °F74 %30.26 in10.0 miNW (310°)5.8 mphClear
11:55 PM34.9 °F27.5 °F74 %30.27 in10.0 miNNW (330°)4.6 mphClear
Hourly data recorded from KT82, located miles away from Fredericksburg, Texas







STORIES FROM OUR PARTNERS